Location: Antioch
(38.0049°N, 121.8058°W)
Time: 23:13:54
(UTC+00:00)

Cosmos 2208 Rocket - Pass Details

Date: 23 May 2026
Orbit: 751 x 800 km, 74.0° (Epoch: 7 June)

Event Time Altitude Azimuth Distance (km) Brightness Sun altitude
Exits shadow 09:08:11 37° 307° (NW) 1,188 5.0 -29.5°
Drops below altitude 10° 09:12:32 10° 2° (N) 2,306 7.3 -29.2°
Sets 09:15:04 0° 11° (N) 3,229 8.4 -29.0°
